CAPE
38 1 0 2 3 3 3 3 5 3 4 5 4 1 0 0 0 0 0 0 0 0
2 1 2 4 2 4 4 5 5 3 3 5 2 2 0 0 0 0 0 0 0 0
0 2 2 2 4 5 6 4 4 4 4 5 4 3 4 1 0 0 1 1 0 0
0 3 3 5 8 7 4 4 3 3 3 3 2 2 0 1 1 1 1 0 0 0
5 6 5 8 7 4 3 2 2 1 0 1 2 2 1 2 3 0 0 0 0 0
8 9 9 8 4 2 1 1 2 1 0 1 1 2 3 1 0 0 0 0 0 0
10 11 5 3 3 3 3 2 1 1 2 0 1 3 2 0 0 0 0 0 0 0
6 4 2 1 1 1 2 2 2 1 3 3 2 0 0 0 0 0 0 0 0 0
4 4 4 3 3 3 3 4 1 2 2 0 0 0 0 0 0 0 0 0 0 0
3 4 4 4 3 3 2 2 1 1 0 0 0 0 0 0 0 0 0 0 0 0
3 2 2 2 2 1 1 1 0 0 0 0 0 0 0 0 0 0 0 0 0 0
1 2 2 1 1 2 0 0 0 0 0 0 0 0 0 0 0 0 0 0 0 0
0 1 1 1 1 0 0 0 0 0 0 0 0 0 0 0 0 0 0 0 0 0
1 1 1 0 0 0 0 0 0 0 0 0 0 0 0 0 0 0 0 0 0 0
CIN
-15 -0 -0 -0 -0 -0 -0 -0 -0 -0 -0 -0 -0 -0 -0 -0 -0 -0 -0 -0 -0 -0
-3 -0 -0 -0 -0 -0 -0 -0 -0 -0 -0 -0 -0 -0 -0 -0 -0 -0 -0 -0 -0 -0
-0 -0 -0 -0 -0 -0 -0 -0 -0 -0 -0 -0 -0 -0 -0 -0 -0 -0 -0 -0 -0 -0
-0 -0 -0 -0 -0 -0 -0 -0 -0 -0 -0 -0 -0 -0 -0 -0 -0 -0 -0 -0 -0 -0
-0 -0 -0 -0 -0 -0 -0 -0 -0 -0 -0 -0 -0 -0 -0 -0 -0 -0 -0 -0 -0 -0
-0 -0 -0 -0 -0 -0 -0 -0 -0 -0 -0 -0 -0 -0 -0 -0 -0 -0 -0 -0 -0 -0
-0 -0 -0 -0 -0 -0 -0 -0 -0 -0 -0 -0 -0 -0 -0 -0 -0 -0 -0 -0 -0 -0
-0 -0 -0 -0 -0 -0 -0 -0 -0 -0 -0 -0 -0 -0 -0 -0 -0 -0 -0 -0 -0 -0
-0 -0 -0 -0 -0 -0 -0 -0 -0 -0 -0 -0 -0 -0 -0 -0 -0 -0 -0 -0 -0 -0
-0 -0 -0 -0 -0 -0 -0 -0 -0 -0 -0 -0 -0 -0 -0 -0 -0 -0 -0 -0 -0 -0
-0 -0 -0 -0 -0 -0 -0 -0 -0 -0 -0 -0 -0 -0 -0 -0 -0 -0 -0 -0 -0 -0
-0 -0 -0 -0 -0 -0 -0 -0 -0 -0 -0 -0 -0 -0 -0 -0 -0 -0 -0 -0 -0 -0
-0 -0 -0 -0 -0 -0 -0 -0 -0 -0 -0 -0 -0 -0 -0 -0 -0 -0 -0 -0 -0 -0
-0 -0 -0 -0 -0 -0 -0 -0 -0 -0 -0 -0 -0 -0 -0 -0 -0 -0 -0 -0 -0 -0
Wind_Speed
38 36 35 33 31 27 26 24 23 19 20 18 13 13 11 11 9 8 9 7 6 9
35 35 35 33 32 30 27 24 23 18 17 17 13 10 9 10 7 6 7 5 8 9
31 30 30 30 30 28 25 23 21 20 16 16 13 10 10 7 5 2 4 3 5 9
27 22 23 25 24 23 21 20 19 16 14 14 9 9 8 3 3 1 4 4 4 7
24 22 17 19 20 19 18 16 14 12 14 11 9 7 6 3 2 2 3 4 6 6
22 20 18 12 12 14 14 13 12 10 9 8 5 5 3 3 4 6 7 8 7 7
18 17 15 11 7 6 10 9 8 9 7 6 5 5 4 6 8 8 9 9 9 9
12 13 12 10 8 4 5 5 6 7 6 6 6 7 8 10 12 11 9 10 10 10
9 11 10 10 7 6 7 6 6 8 8 8 8 11 14 14 13 10 10 10 10 11
8 9 9 9 8 7 6 8 8 10 10 12 11 14 13 11 11 10 9 9 9 11
7 8 10 10 7 7 11 13 13 12 15 15 15 13 13 13 11 9 9 10 11 12
10 10 11 11 10 9 12 11 11 11 13 13 12 11 11 10 9 9 11 12 13 13
12 15 16 15 14 10 13 13 14 12 10 10 9 9 8 8 10 11 12 12 13 14
17 18 16 16 14 13 13 13 14 12 10 9 8 10 12 12 11 10 11 12 14 16
Wind_Direction
244 243 244 245 249 252 249 245 239 232 237 230 234 239 230 240 244 250 255 264 281 300
244 243 244 245 248 251 251 250 233 235 224 233 238 225 214 211 233 248 265 271 310 318
241 245 245 243 246 247 249 249 243 242 238 226 232 230 223 233 225 259 309 320 328 333
234 239 243 241 242 243 244 245 247 242 242 221 223 227 193 204 181 82 346 355 12 5
230 232 241 240 239 238 241 244 243 234 240 234 221 190 164 180 159 53 73 64 59 41
223 228 233 238 234 234 232 241 236 233 209 215 209 192 189 145 97 93 82 81 63 49
217 220 224 227 220 209 215 211 230 223 216 200 182 153 146 104 93 88 79 69 59 53
207 205 210 204 216 178 184 142 154 157 155 152 128 117 116 107 98 90 73 62 53 35
176 181 184 187 172 135 132 125 123 117 124 110 105 108 107 101 92 81 71 59 41 25
177 179 154 172 172 171 131 113 116 101 94 94 98 102 95 85 75 69 56 45 27 16
140 143 143 151 150 141 97 99 96 93 92 92 95 89 86 78 65 48 36 27 31 19
112 107 120 124 129 124 101 91 85 88 90 89 82 77 70 61 41 31 37 30 18 14
96 97 99 100 106 114 95 90 91 88 82 74 63 54 46 34 42 38 41 16 9 7
88 91 96 98 100 99 99 95 88 80 63 51 38 39 53 55 41 34 17 10 1 358